EW7448 Weather Reports


Display with metric or nautical units.
time (UTC)temp
F
wind
direction
speed
MPH
gust
MPH
rain 1hr
in
rain 24hr
in
rain mn
in
humidity
%
barometer
mb
20260831043049 76 42 0.0 0.0 0.00 0.90 0.00 97 1015.0
20260831041551 76 42 0.0 0.0 0.00 0.90 0.00 96 1015.1
20260831040045 76 42 0.0 0.0 0.00 0.90 0.00 96 1015.1
20260831034548 76 42 0.0 0.0 0.00 0.90 0.90 96 1015.3
20260831033044 77 42 0.0 0.0 0.00 0.90 0.90 95 1015.4
20260831031543 77 42 0.0 0.0 0.00 0.90 0.90 95 1015.3
20260831030043 77 42 0.0 0.0 0.00 0.90 0.90 95 1015.1
20260831024542 77 42 0.0 1.0 0.00 0.90 0.90 95 1015.0
20260831023041 77 42 0.0 0.0 0.00 0.90 0.90 95 1015.0
20260831021541 77 42 0.0 0.0 0.00 0.90 0.90 94 1015.1
20260831020045 77 42 0.0 0.0 0.00 0.90 0.90 94 1015.2
20260831014541 78 42 0.0 0.0 0.00 0.90 0.90 94 1015.3
20260831013046 78 42 0.0 0.0 0.00 0.90 0.90 93 1015.3
20260831011545 79 42 0.0 0.0 0.00 0.90 0.90 92 1015.3
20260831010043 79 42 0.0 1.0 0.00 0.90 0.90 91 1015.4
20260831004538 79 42 0.0 2.0 0.00 0.90 0.90 90 1015.1
20260831003039 80 39 0.0 2.0 0.00 0.90 0.90 90 1015.0
20260831001537 80 46 0.0 1.0 0.00 0.90 0.90 89 1014.9
20260831000037 81 46 0.0 4.0 0.00 0.90 0.90 88 1014.9
20260830234541 82 46 0.0 1.0 0.00 0.90 0.90 86 1014.8
20260830233037 83 46 0.0 1.0 0.00 0.90 0.90 84 1014.6
20260830231536 83 46 0.0 1.0 0.00 0.90 0.90 83 1014.3
20260830230035 84 46 0.0 1.0 0.00 0.90 0.90 81 1014.0
20260830224535 84 46 0.0 1.0 0.00 0.92 0.90 81 1014.1
20260830223036 84 46 0.0 2.0 0.00 0.92 0.90 80 1014.4
20260830221544 84 47 0.0 3.0 0.00 0.92 0.90 79 1014.3
20260830220034 84 44 0.0 3.0 0.00 0.92 0.90 78 1014.3
20260830214532 86 33 0.0 1.0 0.00 0.93 0.90 77 1014.2
20260830213032 86 32 0.0 4.0 0.00 0.93 0.90 77 1014.0
20260830211532 87 29 0.0 3.0 0.00 0.93 0.90 76 1014.2
20260830210035 88 42 0.0 5.0 0.00 0.93 0.90 75 1014.3
20260830204530 87 355 3.0 8.0 0.00 0.95 0.90 75 1014.2
20260830203030 87 52 1.0 5.0 0.00 0.95 0.90 76 1014.2
20260830201528 87 17 0.0 5.0 0.00 0.95 0.90 76 1014.6
20260830200041 87 25 0.0 4.0 0.00 0.95 0.90 78 1014.6
20260830194528 86 18 0.0 4.0 0.00 0.98 0.90 79 1014.7
20260830193028 88 26 0.0 2.0 0.00 0.98 0.90 78 1014.7
20260830191527 88 119 0.0 0.0 0.00 0.98 0.90 76 1014.8
20260830190041 86 35 0.0 0.0 0.00 0.98 0.90 79 1014.7
20260830184524 85 36 0.0 2.0 0.00 0.98 0.90 83 1014.8
20260830183024 83 8 1.0 5.0 0.00 0.98 0.90 85 1015.2
20260830181522 81 41 0.0 4.0 0.00 0.98 0.90 89 1015.5
20260830180026 80 61 0.0 5.0 0.00 0.98 0.90 92 1015.8
20260830174521 78 18 2.0 8.0 0.02 0.98 0.90 95 1016.3
20260830173020 77 58 1.0 6.0 0.04 0.98 0.90 96 1016.4
20260830171519 76 30 0.0 4.0 0.05 0.98 0.90 97 1016.5
20260830170019 76 35 0.0 4.0 0.16 0.98 0.90 97 1016.6
20260830164519 75 25 0.0 2.0 0.72 0.96 0.88 97 1017.1
20260830163018 74 114 0.0 2.0 0.71 0.94 0.86 97 1017.2
20260830161517 75 18 0.0 2.0 0.83 0.93 0.85 96 1017.3
20260830160024 75 43 1.0 6.0 0.72 0.81 0.73 95 1017.0
20260830154516 78 174 0.0 4.0 0.14 0.23 0.15 95 1017.2
20260830153013 78 127 0.0 5.0 0.14 0.23 0.15 93 1016.5
20260830151512 83 10 2.0 7.0 0.00 0.09 0.01 86 1016.8
20260830150012 86 116 0.0 2.0 0.00 0.09 0.01 87 1016.2
20260830144509 85 166 0.0 1.0 0.00 0.09 0.01 88 1016.1
20260830143009 86 211 0.0 2.0 0.00 0.09 0.01 86 1016.1
20260830141508 87 229 0.0 3.0 0.00 0.09 0.01 86 1016.3
20260830140007 88 261 0.0 2.0 0.00 0.09 0.01 86 1016.3
20260830134602 87 160 0.0 1.0 0.00 0.09 0.01 88 1016.3
20260830133056 85 251 0.0 1.0 0.00 0.09 0.01 92 1016.2
20260830131553 83 135 0.0 0.0 0.00 0.09 0.01 96 1016.1
20260830130049 81 135 0.0 1.0 0.00 0.09 0.01 98 1015.8
20260830124545 80 135 0.0 1.0 0.00 0.09 0.01 99 1015.8
20260830123042 78 135 0.0 0.0 0.00 0.09 0.01 99 1015.7
20260830121540 77 135 0.0 0.0 0.00 0.09 0.01 99 1015.6
20260830120039 76 135 0.0 0.0 0.00 0.09 0.01 99 1015.5
20260830114538 76 135 0.0 0.0 0.00 0.09 0.01 99 1015.2
20260830113038 76 135 0.0 1.0 0.00 0.09 0.01 99 1015.0
20260830111537 76 135 0.0 0.0 0.00 0.09 0.01 99 1014.9
20260830110037 75 135 0.0 0.0 0.01 0.09 0.01 99 1014.4
20260830104556 76 135 0.0 0.0 0.01 0.09 0.01 98 1014.4
20260830103036 76 135 0.0 0.0 0.01 0.09 0.01 99 1014.0
20260830101536 76 135 0.0 0.0 0.01 0.09 0.01 98 1014.0
20260830100035 76 135 0.0 0.0 0.00 0.08 0.00 98 1013.9
20260830094535 76 135 0.0 0.0 0.00 0.08 0.00 98 1013.8
20260830093041 76 135 0.0 0.0 0.00 0.08 0.00 98 1013.7
20260830091533 76 135 0.0 0.0 0.00 0.08 0.00 98 1013.7
20260830090032 76 135 0.0 0.0 0.00 0.08 0.00 98 1013.9
20260830084530 76 135 0.0 0.0 0.00 0.08 0.00 98 1013.9
20260830083050 76 135 0.0 0.0 0.00 0.08 0.00 98 1014.1
20260830081527 77 135 0.0 0.0 0.00 0.08 0.00 98 1014.0
20260830080025 77 135 0.0 0.0 0.00 0.08 0.00 98 1014.3
20260830074523 76 135 0.0 0.0 0.00 0.08 0.00 98 1014.5
20260830073022 76 135 0.0 0.0 0.00 0.08 0.00 98 1014.4
20260830071525 76 135 0.0 0.0 0.00 0.08 0.00 98 1014.5
20260830070023 76 135 0.0 0.0 0.00 0.08 0.00 98 1014.6
20260830064520 77 135 0.0 1.0 0.00 0.08 0.00 99 1014.8
20260830063015 76 135 0.0 3.0 0.00 0.08 0.00 99 1014.8
20260830061514 76 105 0.0 1.0 0.00 0.08 0.00 99 1015.0
20260830060015 76 113 0.0 2.0 0.00 0.08 0.00 99 1015.0
20260830054509 75 207 0.0 0.0 0.00 0.08 0.00 99 1015.3
20260830053017 75 207 0.0 0.0 0.00 0.08 0.00 99 1015.5
20260830051514 75 207 0.0 0.0 0.00 0.08 0.00 99 1015.6
20260830050004 75 207 0.0 0.0 0.00 0.08 0.00 98 1015.9
20260830044503 75 207 0.0 0.0 0.00 0.08 0.00 99 1016.0